Location: Abraham Lincoln Continuation High School
(33.9711°N, 117.3662°W)
Time: 12:05:44
(UTC+00:00)

Lacrosse 5 - Pass Details

Date: 22 January 2021
Orbit: 715 x 724 km, 57.0° (Epoch: 03 March)

Event Time Altitude Azimuth Distance (km) Brightness Sun altitude
Rises 04:25:48 0° 304° (WNW) 3,116 5.8 -40.5°
Reaches altitude 10° 04:28:44 10° 287° (WNW) 2,194 5.0 -41.1°
Enters shadow 04:29:44 14° 278° (W) 1,943 4.7 -41.3°
